Dewpoint
63 69 70 70 70 70 70 70 70 70 69 68 67 67 67 66 65 64 63 62 62 61 60 60 57 56 55 56 62 63 63 63 63 63 64 65 65 65 65 65 64 64 64
64 69 70 70 70 70 70 69 69 69 68 67 67 66 66 65 64 63 62 61 60 59 59 58 56 55 54 54 59 60 58 57 61 62 62 63 63 63 64 63 63 63 63
65 68 70 70 70 70 69 69 69 68 68 67 65 65 64 63 62 61 60 59 59 58 58 57 54 53 52 51 55 55 56 60 59 58 57 58 60 61 61 61 60 60 60
65 68 69 70 69 69 69 69 68 68 67 66 65 64 63 61 60 59 59 58 58 57 56 54 53 51 50 49 51 51 55 57 56 55 54 55 55 57 57 57 57 57 58
65 68 69 70 70 69 69 68 67 66 65 65 64 63 60 59 58 58 58 57 57 56 54 53 51 49 47 46 47 48 53 55 55 53 54 54 54 55 55 55 55 55 55
66 67 69 69 69 69 68 68 67 65 64 63 62 59 59 58 58 57 57 56 56 54 53 52 49 47 46 45 44 47 53 53 52 51 52 54 54 54 54 54 54 54 54
67 68 69 69 69 68 68 67 66 64 62 60 59 58 58 57 57 56 55 55 54 53 52 50 48 46 43 44 44 46 51 52 50 51 51 52 53 53 53 53 53 53 53
66 67 68 69 68 67 67 66 65 63 60 59 58 57 57 57 56 55 55 54 53 52 50 49 47 45 43 42 41 45 49 49 49 49 50 52 53 53 53 52 51 51 52
66 66 67 67 67 66 66 65 63 62 60 59 58 57 57 56 55 55 54 53 52 51 49 47 45 43 41 40 41 46 50 49 47 48 50 50 51 51 51 51 51 50 50
66 66 66 66 66 65 64 63 62 61 60 59 59 58 57 56 55 54 53 52 51 50 48 46 44 40 36 33 31 42 46 47 45 47 50 50 51 50 50 50 49 49 49
65 65 65 65 64 62 62 61 61 60 59 59 58 57 56 54 53 51 51 49 48 48 46 41 38 36 33 29 30 38 41 42 45 47 49 50 49 49 49 48 48 48 48
63 64 64 63 61 60 60 59 58 58 58 57 55 52 51 50 49 50 49 47 46 44 41 39 37 35 29 22 27 31 36 42 44 45 47 48 48 48 47 46 46 46 46
62 62 62 61 60 59 58 57 57 56 55 54 51 50 49 49 48 47 46 44 42 39 34 28 23 21 21 21 21 23 34 40 41 42 43 46 47 47 45 45 44 44 44
60 61 61 60 59 58 57 56 55 54 53 52 50 47 47 46 45 43 41 38 34 31 27 22 21 20 20 19 20 21 30 37 38 38 38 42 44 44 43 43 43 43 43
60 60 60 60 59 57 56 55 54 53 52 52 46 45 45 44 43 40 33 31 28 26 23 22 21 22 22 23 22 21 22 32 34 33 33 37 40 40 41 41 41 41 42
60 60 61 60 58 57 56 54 53 52 51 50 43 43 42 41 40 35 30 27 26 25 24 23 23 23 23 23 23 24 23 26 32 31 29 31 32 31 33 38 39 39 39
59 60 59 59 58 56 55 54 53 51 50 46 42 41 39 36 32 30 29 27 27 27 25 24 24 24 24 23 22 23 24 24 26 28 28 28 30 30 30 30 34 36 36
59 59 59 59 57 56 55 53 51 48 47 43 41 38 36 32 31 30 29 27 28 25 23 22 23 22 21 21 21 22 23 23 24 25 23 24 25 26 29 29 31 32 33
58 58 59 58 58 55 54 50 48 44 43 40 39 35 33 32 31 30 29 28 27 25 23 23 22 21 19 20 20 21 21 22 22 23 23 22 23 24 25 26 27 27 30
56 58 58 57 57 55 51 48 45 41 38 37 37 33 33 32 32 30 30 27 26 24 23 21 21 22 21 19 10 20 22 23 22 21 22 21 22 22 23 22 24 25 27
54 57 58 56 57 55 50 47 43 39 36 35 34 33 32 32 32 31 29 27 26 24 21 20 21 20 21 23 22 22 21 21 21 22 23 21 21 20 22 22 23 23 24
54 57 57 56 56 54 52 48 45 39 35 33 33 32 32 32 32 31 28 27 26 23 21 21 21 22 20 24 21 22 19 21 21 19 21 20 19 20 21 22 22 22 23
52 56 56 56 56 55 52 49 43 37 33 32 31 31 31 31 32 30 28 27 26 25 22 22 22 20 16 21 22 21 15 9 17 22 19 20 19 19 21 21 22 22 23
54 56 56 56 55 54 52 48 41 38 34 33 30 31 31 30 32 30 28 28 27 26 23 22 23 23 19 14 18 21 20 19 4 6 20 21 21 20 21 22 23 22 23
52 55 55 55 55 54 52 48 41 41 37 34 31 30 30 30 32 31 29 28 28 26 24 23 23 23 23 19 18 19 18 19 18 11 3 15 20 21 22 21 21 22 23
52 54 55 55 55 54 52 48 43 42 38 33 31 30 30 30 31 31 30 29 28 27 25 24 23 22 23 22 22 19 17 13 14 14 14 17 16 17 19 21 20 21 23
Wind_Speed
20 21 25 26 25 24 24 25 25 26 26 27 24 24 23 22 20 18 18 18 18 18 18 18 15 15 17 14 18 17 20 21 22 24 26 25 24 24 24 24 23 21 23
23 23 26 27 26 25 25 25 26 27 25 25 25 23 22 21 20 18 18 17 18 19 18 16 15 15 16 14 17 16 17 15 20 24 24 24 23 22 22 23 23 21 23
27 25 24 27 26 25 25 26 26 27 26 25 23 23 22 20 19 18 18 19 18 18 17 16 15 16 15 13 16 17 21 25 24 22 21 16 19 21 20 20 19 19 19
24 23 23 27 27 27 27 26 26 26 26 25 24 23 22 20 19 19 19 18 18 18 18 16 16 18 15 14 16 16 22 25 25 22 16 16 15 19 18 18 19 19 20
24 22 23 28 28 28 29 28 28 26 27 25 25 23 21 20 19 19 19 18 19 19 18 17 17 18 14 17 18 18 21 23 23 20 18 16 14 18 19 19 18 19 19
24 23 25 28 28 29 30 29 29 26 27 25 25 23 23 21 19 19 19 19 19 19 17 18 19 17 17 17 18 19 22 23 21 18 18 16 14 19 20 20 20 20 20
23 23 26 29 28 30 30 29 30 27 25 23 24 24 24 22 19 19 19 20 20 19 18 19 20 16 19 18 19 20 22 22 17 17 15 15 15 19 20 20 20 20 19
25 25 25 29 30 30 30 29 28 27 25 24 24 23 24 22 20 20 19 20 20 18 18 20 19 17 20 18 18 20 21 20 16 15 15 13 19 19 19 19 19 19 19
20 24 26 26 28 30 30 31 28 26 25 24 24 24 24 22 21 20 20 20 20 19 19 20 18 18 21 19 20 20 22 20 16 12 15 13 18 18 18 19 18 18 18
17 20 25 29 26 25 26 29 27 24 25 23 23 24 22 22 21 20 20 20 20 19 19 19 17 18 19 18 16 19 19 17 13 12 13 14 17 17 17 18 17 17 17
17 22 25 28 26 24 25 25 26 26 25 23 24 24 18 16 17 16 18 20 19 20 19 19 19 19 17 16 16 19 17 12 13 12 12 16 16 17 17 16 16 16 16
16 21 23 25 26 25 23 23 21 21 18 18 19 20 17 17 16 15 17 19 18 20 18 17 17 13 10 12 13 17 15 13 13 12 11 15 16 16 15 16 15 14 14
17 20 24 25 26 26 24 21 17 16 17 17 21 19 17 16 15 15 14 14 14 15 10 11 13 11 12 13 12 13 14 13 12 11 12 13 14 14 14 14 14 13 13
14 20 25 25 24 25 23 21 19 18 18 18 18 20 19 15 16 15 16 16 14 12 11 12 12 14 14 13 13 14 14 12 10 10 10 11 12 12 12 13 14 13 12
13 9 18 23 24 25 25 22 21 19 18 18 17 19 19 17 17 15 16 14 11 12 14 14 13 13 13 13 12 13 13 12 10 9 8 10 10 10 10 11 12 12 11
16 16 16 20 22 25 24 26 23 20 19 17 17 18 20 18 18 17 16 14 13 14 13 14 14 13 12 13 12 12 10 10 10 8 7 6 8 7 7 10 11 12 11
18 16 22 21 23 25 25 25 22 22 21 18 17 20 21 19 20 18 17 15 14 13 15 14 12 11 12 10 11 10 9 8 10 9 7 4 3 4 5 7 9 11 10
14 22 22 23 20 26 22 22 21 21 21 19 18 19 21 21 19 18 19 17 15 15 15 15 13 11 11 11 9 8 7 7 9 8 7 5 4 2 3 6 8 10 10
21 22 25 24 22 25 22 19 20 22 21 18 17 18 20 19 19 18 18 18 17 15 15 14 9 10 11 10 11 8 7 7 7 7 6 4 2 2 2 5 7 9 10
20 25 26 24 24 21 20 18 17 18 18 18 18 17 20 18 19 18 17 19 19 17 15 13 12 6 8 8 9 7 4 5 6 6 6 4 2 2 0 3 5 6 10
22 25 27 27 27 21 22 25 23 24 19 18 18 19 20 18 20 20 17 19 18 19 17 16 12 12 6 4 8 4 0 2 4 5 5 6 2 3 2 3 4 4 6
24 29 31 31 31 26 25 23 20 22 17 19 18 20 21 22 20 21 20 19 19 18 18 17 15 8 4 4 5 4 2 1 3 4 5 6 5 2 4 4 4 6 5
28 30 31 30 32 31 25 20 16 14 13 14 21 20 19 21 21 21 20 19 21 18 20 19 17 11 10 2 3 4 3 4 2 1 5 5 5 4 6 7 6 6 6
31 32 33 34 34 33 30 26 30 30 25 18 22 19 22 24 22 21 21 20 20 18 21 19 16 11 10 12 5 5 5 4 5 3 2 3 4 6 9 8 7 7 7
32 33 31 32 32 33 33 32 30 27 22 15 20 21 23 21 21 22 21 21 21 18 19 20 18 15 9 12 8 6 3 3 2 3 4 2 2 4 7 6 8 6 9
22 28 31 33 35 34 32 31 35 34 28 22 24 24 24 20 21 21 22 21 19 19 22 20 18 17 14 10 8 9 8 5 6 5 3 2 4 4 4 7 9 6 5
Wind_Direction
162 171 158 151 148 148 147 140 135 130 126 123 120 112 109 109 109 108 107 106 105 99 94 89 84 83 84 85 90 90 87 83 81 81 72 66 60 60 59 59 61 55 52
153 163 156 152 149 150 147 140 136 131 127 120 119 116 112 111 110 110 109 109 106 101 97 92 88 86 85 89 93 94 87 90 86 84 76 68 64 63 60 57 57 57 58
152 158 156 152 151 151 148 141 134 131 126 122 121 118 116 116 116 113 112 111 107 102 97 94 92 87 86 90 93 90 79 90 91 82 76 74 71 68 65 62 60 57 58
150 157 153 153 152 150 143 137 131 127 123 122 123 120 119 120 118 116 115 112 107 103 100 97 93 88 88 91 93 87 86 84 84 77 68 69 72 77 73 67 64 62 58
152 161 155 154 151 145 141 138 130 126 123 127 124 123 125 121 119 120 114 113 110 106 102 100 93 90 95 92 93 88 82 83 79 77 75 67 71 75 74 71 65 63 61
156 157 157 152 149 145 142 137 130 131 131 135 130 132 127 126 126 121 121 117 111 107 106 100 94 95 95 93 93 92 89 82 73 69 76 76 75 80 77 74 70 66 64
153 153 151 151 149 145 141 136 131 135 137 141 136 136 131 128 129 125 124 119 114 109 108 100 96 97 93 96 94 92 93 88 76 76 71 78 80 81 79 75 70 65 61
154 156 154 149 148 146 140 135 135 139 142 140 140 136 131 131 133 130 126 119 115 111 108 101 98 100 96 96 96 86 91 87 79 76 73 69 80 77 75 73 71 69 65
151 157 153 145 146 145 139 135 138 141 141 144 142 136 132 134 135 133 126 121 117 112 107 102 102 98 95 98 93 91 90 88 82 69 72 72 80 79 78 76 72 69 66
147 152 149 140 146 141 139 133 137 141 140 143 139 132 131 133 134 131 126 123 117 114 109 105 105 100 98 94 88 86 90 86 73 71 81 83 83 79 77 73 73 71 67
149 152 149 144 143 143 137 136 137 138 139 139 127 125 121 121 119 119 123 125 123 116 111 111 105 98 99 92 93 92 92 87 68 68 81 89 84 81 77 74 70 68 67
168 152 148 144 142 142 136 134 136 139 134 130 126 125 122 118 121 123 127 127 125 118 120 118 109 105 96 87 82 87 97 89 74 73 72 87 84 80 75 71 66 63 61
165 159 152 148 146 141 139 136 134 129 130 132 133 130 128 123 123 126 121 116 123 120 120 100 99 112 108 103 97 100 105 97 83 71 77 83 82 78 72 67 60 54 53
189 162 153 150 149 141 138 141 142 141 143 149 141 137 133 131 133 136 134 136 133 139 127 122 114 107 107 106 107 105 112 110 103 87 75 74 79 71 65 58 54 46 42
187 160 165 157 152 148 146 145 148 149 154 159 144 147 142 146 149 152 152 148 161 148 136 129 125 120 113 108 103 107 108 126 117 105 85 78 73 64 56 49 44 35 32
182 182 174 165 154 156 154 153 156 154 159 158 150 152 147 153 156 167 158 160 161 140 148 138 137 131 125 119 113 113 114 121 128 120 101 81 78 55 35 36 31 24 20
189 186 178 174 161 163 158 157 161 157 160 156 155 155 154 158 161 170 155 162 148 148 140 135 130 129 126 120 121 122 129 132 125 127 116 114 75 49 35 21 16 13 13
185 191 194 171 171 166 165 162 156 157 159 159 156 156 161 161 167 160 156 159 150 150 145 141 142 135 139 135 135 137 145 143 140 138 125 120 102 65 359 2 6 5 4
206 191 183 178 174 168 164 156 152 154 155 160 155 157 165 163 169 160 161 161 154 157 152 147 152 143 142 137 146 147 166 160 158 154 156 141 149 82 15 360 357 357 359
214 198 178 178 179 170 151 146 144 155 153 158 162 163 166 168 167 160 167 162 160 164 155 156 144 129 135 137 129 141 166 170 165 169 180 178 183 203 167 334 344 345 353
208 195 182 173 179 163 159 157 158 168 162 162 168 170 170 169 169 168 171 165 171 165 162 159 133 139 114 120 120 102 358 182 199 190 194 190 199 214 203 312 332 336 341
203 194 185 181 176 172 174 174 172 165 173 166 169 176 174 172 173 171 172 172 171 163 162 163 153 148 113 156 145 121 178 266 258 230 201 187 188 216 285 296 303 324 334
200 196 188 182 179 183 176 165 148 142 138 156 183 181 179 175 178 180 173 173 173 168 171 172 167 161 147 143 142 144 145 202 193 319 206 202 187 244 273 290 285 305 319
193 188 186 187 186 182 172 168 168 174 178 193 184 179 180 181 180 172 175 177 175 174 171 176 174 172 149 160 125 97 83 137 179 179 266 244 221 239 264 285 273 292 313
191 188 192 187 189 188 179 175 174 183 187 173 181 178 182 185 175 178 178 178 178 174 176 176 175 171 167 163 148 153 134 79 96 144 198 214 323 251 267 245 273 283 295
180 183 189 190 194 191 185 180 181 184 180 172 178 180 186 185 181 180 178 180 178 176 177 180 176 173 174 162 167 169 168 171 189 162 186 220 253 283 261 256 275 270 283